Change the Weather History Date:

Sunday, November 10, 2013

  Actual Average Record
Temperature  
Mean Temperature 48 °F -  
Max Temperature 53 °F 48 °F 68 °F (1999)
Min Temperature 42 °F 38 °F 30 °F (2014)
Degree Days  
Heating Degree Days 18    
Moisture  
Dew Point 39 °F    
Average Humidity 71    
Maximum Humidity 93    
Minimum Humidity 57    
Precipitation  
Precipitation 0.12 in - - ()
Sea Level Pressure  
Sea Level Pressure 29.86 in    
Wind  
Wind Speed 9 mph (SW)    
Max Wind Speed 25 mph    
Max Gust Speed 33 mph    
Visibility 10 miles    
Events      
Averages and records for this station are not official NWS values.
T = Trace of Precipitation, MM = Missing Value Source: NWS Daily Summary

Daily Weather History Graph

Daily Weather History Graph

Search for Another Location

Airport or City:

Trip Planner

Search our weather history database for the weather conditions in past years. The results will help you decide how hot, cold, wet, or windy it might be!

Date:

Astronomy

Nov. 10, 2013 Rise Set
Actual Time 6:25 AM EST 4:24 PM EST
Civil Twilight 5:55 AM EST 4:53 PM EST
Nautical Twilight 5:21 AM EST 5:27 PM EST
Astronomical Twilight 4:48 AM EST 6:00 PM EST
Moon 12:34 PM EST (11/10) No Moon Set
Length of Visible Light 10h 58m
Length of Day
9h 59m
First Quarter, 55% of the Moon is Illuminated
Nov 10
First Quarter
Nov 17
Full
Nov 25
Last Quarter
Dec 2
New
Dec 9
First Quarter

Hourly Weather History & Observations

Time (EST) Temp. Windchill Dew Point Humidity Pressure Visibility Wind Dir Wind Speed Gust Speed Precip Events Conditions
12:15 AM 44.6 °F 41.4 °F 30.2 °F 57% 30.07 in 10.0 mi SSW 5.8 mph - N/A   Partly Cloudy
12:35 AM 44.6 °F 42.2 °F 30.2 °F 57% 30.06 in 10.0 mi South 4.6 mph - N/A   Partly Cloudy
12:55 AM 42.8 °F 41.1 °F 32.0 °F 66% 30.05 in 10.0 mi South 3.5 mph - N/A   Partly Cloudy
1:15 AM 44.6 °F 42.2 °F 32.0 °F 61% 30.04 in 10.0 mi SSE 4.6 mph - N/A   Mostly Cloudy
1:35 AM 44.6 °F 42.2 °F 33.8 °F 66% 30.03 in 10.0 mi South 4.6 mph - N/A   Mostly Cloudy
1:55 AM 44.6 °F 42.2 °F 33.8 °F 66% 30.02 in 10.0 mi SE 4.6 mph - 0.01 in   Scattered Clouds
2:15 AM 44.6 °F 40.2 °F 35.6 °F 71% 30.01 in 10.0 mi SE 8.1 mph - N/A   Partly Cloudy
2:35 AM 44.6 °F 40.2 °F 33.8 °F 66% 29.99 in 10.0 mi SSE 8.1 mph - N/A   Partly Cloudy
2:55 AM 44.6 °F 40.2 °F 35.6 °F 71% 29.98 in 10.0 mi SE 8.1 mph - N/A   Scattered Clouds
3:15 AM 46.4 °F 42.4 °F 37.4 °F 71% 29.97 in 10.0 mi SSE 8.1 mph - N/A   Mostly Cloudy
3:35 AM 46.4 °F 42.4 °F 37.4 °F 71% 29.96 in 10.0 mi SSE 8.1 mph - N/A   Overcast
3:55 AM 46.4 °F 42.4 °F 39.2 °F 76% 29.95 in 10.0 mi SSE 8.1 mph - 0.01 in   Overcast
4:15 AM 48.2 °F - 39.2 °F 71% 29.94 in 10.0 mi SSE 8.1 mph - 0.01 in   Overcast
4:35 AM 48.2 °F - 39.2 °F 71% 29.94 in 10.0 mi South 8.1 mph - 0.01 in   Overcast
4:55 AM 48.2 °F - 41.0 °F 76% 29.93 in 10.0 mi South 5.8 mph - 0.01 in   Overcast
5:15 AM 48.2 °F - 41.0 °F 76% 29.92 in 10.0 mi SSW 6.9 mph - N/A   Overcast
5:35 AM 48.2 °F - 41.0 °F 76% 29.92 in 10.0 mi SSW 6.9 mph - N/A   Overcast
5:55 AM 48.2 °F - 42.8 °F 82% 29.91 in 10.0 mi South 6.9 mph - N/A   Overcast
6:15 AM 48.2 °F - 42.8 °F 82% 29.91 in 10.0 mi SW 9.2 mph - 0.01 in   Overcast
6:35 AM 48.2 °F - 42.8 °F 82% 29.91 in 8.0 mi WSW 12.7 mph 16.1 mph 0.01 in   Overcast
6:55 AM 48.2 °F - 44.6 °F 87% 29.91 in 10.0 mi West 5.8 mph - 0.01 in   Overcast
7:15 AM 46.4 °F 44.3 °F 44.6 °F 93% 29.91 in 10.0 mi West 4.6 mph - N/A   Overcast
7:35 AM 46.4 °F - 44.6 °F 93% 29.90 in 10.0 mi Calm Calm - N/A   Overcast
7:55 AM 46.4 °F - 44.6 °F 93% 29.89 in 7.0 mi Calm Calm - N/A   Overcast
8:15 AM 46.4 °F 44.3 °F 44.6 °F 93% 29.89 in 10.0 mi SSE 4.6 mph - 0.01 in   Overcast
8:35 AM 48.2 °F - 46.4 °F 93% 29.88 in 10.0 mi South 4.6 mph - 0.01 in   Overcast
8:55 AM 48.2 °F - 46.4 °F 93% 29.86 in 10.0 mi SSE 5.8 mph - 0.01 in   Mostly Cloudy
9:15 AM 51.8 °F - 46.4 °F 82% 29.86 in 10.0 mi South 5.8 mph - N/A   Mostly Cloudy
9:35 AM 51.8 °F - 46.4 °F 82% 29.86 in 10.0 mi SW 10.4 mph - N/A   Overcast
9:55 AM 51.8 °F - 48.2 °F 88% 29.85 in 10.0 mi WSW 8.1 mph - N/A   Overcast
10:15 AM 51.8 °F - 46.4 °F 82% 29.84 in 10.0 mi SSW 6.9 mph - N/A   Overcast
10:35 AM 53.6 °F - 46.4 °F 77% 29.82 in 10.0 mi SW 9.2 mph - N/A   Mostly Cloudy
10:55 AM 53.6 °F - 42.8 °F 67% 29.81 in 10.0 mi SW 10.4 mph - N/A   Mostly Cloudy
11:15 AM 53.6 °F - 44.6 °F 72% 29.79 in 10.0 mi SW 9.2 mph - N/A   Scattered Clouds
11:35 AM 53.6 °F - 44.6 °F 72% 29.79 in 10.0 mi WSW 12.7 mph - N/A   Mostly Cloudy
11:55 AM 53.6 °F - 44.6 °F 72% 29.77 in 10.0 mi West 6.9 mph - N/A   Mostly Cloudy
12:15 PM 53.6 °F - 44.6 °F 72% 29.76 in 10.0 mi West 6.9 mph - N/A   Mostly Cloudy
12:35 PM 53.6 °F - 44.6 °F 72% 29.76 in 10.0 mi WSW 9.2 mph - N/A   Overcast
12:55 PM 53.6 °F - 42.8 °F 67% 29.75 in 10.0 mi WSW 10.4 mph - N/A   Overcast
1:15 PM 53.6 °F - 41.0 °F 62% 29.75 in 10.0 mi WSW 11.5 mph - N/A   Overcast
1:35 PM 53.6 °F - 39.2 °F 58% 29.75 in 10.0 mi West 9.2 mph - N/A   Overcast
1:55 PM 51.8 °F - 41.0 °F 67% 29.74 in 10.0 mi WSW 10.4 mph - N/A   Overcast
2:15 PM 51.8 °F - 41.0 °F 67% 29.74 in 10.0 mi WSW 9.2 mph - N/A   Overcast
2:35 PM 51.8 °F - 41.0 °F 67% 29.74 in 10.0 mi West 10.4 mph - N/A   Overcast
2:55 PM 51.8 °F - 42.8 °F 71% 29.74 in 10.0 mi West 8.1 mph - N/A   Overcast
3:15 PM 51.8 °F - 42.8 °F 71% 29.75 in 10.0 mi West 6.9 mph - N/A   Mostly Cloudy
3:35 PM 51.8 °F - 44.6 °F 76% 29.75 in 10.0 mi West 6.9 mph - N/A   Mostly Cloudy
3:55 PM 51.8 °F - 41.0 °F 67% 29.76 in 10.0 mi West 10.4 mph 16.1 mph N/A   Overcast
4:15 PM 51.8 °F - 37.4 °F 58% 29.77 in 10.0 mi WNW 21.9 mph 27.6 mph N/A   Overcast
4:35 PM 48.2 °F - 39.2 °F 71% 29.77 in 10.0 mi West 19.6 mph 26.5 mph N/A   Overcast
4:55 PM 48.2 °F - 39.2 °F 71% 29.78 in 10.0 mi West 12.7 mph - N/A   Overcast
5:15 PM 48.2 °F - 37.4 °F 66% 29.78 in 10.0 mi West 13.8 mph 18.4 mph N/A   Overcast
5:35 PM 50.0 °F - 37.4 °F 62% 29.78 in 10.0 mi West 16.1 mph 24.2 mph N/A   Overcast
5:55 PM 48.2 °F - 35.6 °F 62% 29.79 in 10.0 mi West 19.6 mph 26.5 mph N/A   Mostly Cloudy
6:15 PM 48.2 °F - 35.6 °F 62% 29.80 in 10.0 mi West 17.3 mph 23.0 mph N/A   Partly Cloudy
6:35 PM 48.2 °F - 35.6 °F 62% 29.80 in 10.0 mi West 17.3 mph 25.3 mph N/A   Scattered Clouds
6:55 PM 48.2 °F - 35.6 °F 62% 29.81 in 10.0 mi West 17.3 mph 23.0 mph N/A   Partly Cloudy
7:15 PM 46.4 °F 39.2 °F 35.6 °F 66% 29.81 in 10.0 mi West 18.4 mph 25.3 mph 0.01 in   Clear
7:35 PM 46.4 °F 39.5 °F 35.6 °F 66% 29.81 in 10.0 mi West 17.3 mph 26.5 mph 0.01 in   Clear
7:55 PM 46.4 °F 38.7 °F 35.6 °F 66% 29.82 in 10.0 mi West 20.7 mph 25.3 mph 0.03 in   Clear
8:15 PM 46.4 °F 38.7 °F 35.6 °F 66% 29.82 in 10.0 mi West 20.7 mph 29.9 mph 0.01 in   Clear
8:35 PM 46.4 °F 39.0 °F 35.6 °F 66% 29.82 in 10.0 mi West 19.6 mph 28.8 mph 0.02 in   Clear
8:55 PM 46.4 °F 39.2 °F 35.6 °F 66% 29.83 in 10.0 mi West 18.4 mph 27.6 mph 0.02 in   Clear
9:15 PM 46.4 °F 38.3 °F 35.6 °F 66% 29.83 in 10.0 mi West 23.0 mph 27.6 mph N/A   Clear
9:35 PM 46.4 °F 39.0 °F 35.6 °F 66% 29.83 in 10.0 mi West 19.6 mph 26.5 mph N/A   Clear
9:55 PM 46.4 °F 37.9 °F 35.6 °F 66% 29.83 in 10.0 mi West 25.3 mph 32.2 mph N/A   Clear
10:15 PM 44.6 °F 35.9 °F 33.8 °F 66% 29.83 in 10.0 mi West 23.0 mph 31.1 mph 0.01 in   Clear
10:35 PM 44.6 °F 36.1 °F 35.6 °F 71% 29.83 in 10.0 mi West 21.9 mph 32.2 mph 0.02 in   Clear
10:55 PM 44.6 °F 35.9 °F 33.8 °F 66% 29.84 in 10.0 mi West 23.0 mph 31.1 mph 0.02 in   Clear
11:15 PM 44.6 °F 35.7 °F 33.8 °F 66% 29.84 in 10.0 mi West 24.2 mph 31.1 mph N/A   Clear
11:35 PM 44.6 °F 36.4 °F 33.8 °F 66% 29.84 in 10.0 mi West 20.7 mph 32.2 mph N/A   Clear
11:55 PM 44.6 °F 36.6 °F 33.8 °F 66% 29.84 in 10.0 mi West 19.6 mph 33.4 mph N/A   Partly Cloudy